Weather History for KOVS - April, 2013

Change the Weather History Date:

Saturday, April 6, 2013

  Actual Average (KPDC) Record (KPDC)
Temperature  
Mean Temperature 50 °F -  
Max Temperature 63 °F 56 °F 87 °F (1991)
Min Temperature 39 °F 31 °F 2 °F (1982)
Degree Days  
Heating Degree Days 14    
Moisture  
Dew Point 36 °F    
Average Humidity 62    
Maximum Humidity 88    
Minimum Humidity 39    
Precipitation  
Precipitation 0.07 in - - ()
Sea Level Pressure  
Sea Level Pressure 29.72 in    
Wind  
Wind Speed 8 mph (SW)    
Max Wind Speed 17 mph    
Max Gust Speed 28 mph    
Visibility 9 miles    
Events Rain    
Averages and records for this station are not official NWS values.
T = Trace of Precipitation, MM = Missing Value Source: NWS Daily Summary

Daily Weather History Graph

Daily Weather History Graph

Search for Another Location

Airport or City:

Trip Planner

Search our weather history database for the weather conditions in past years. The results will help you decide how hot, cold, wet, or windy it might be!

Date:

Astronomy

Apr. 06, 2013 Rise Set
Actual Time 6:35 AM CDT 7:35 PM CDT
Civil Twilight 6:06 AM CDT 8:04 PM CDT
Nautical Twilight 5:31 AM CDT 8:39 PM CDT
Astronomical Twilight 4:55 AM CDT 9:15 PM CDT
Moon 4:25 AM CDT (4/6) 3:59 PM CDT (4/6)
Length of Visible Light 13h 57m
Length of Day
12h 59m
Waning Crescent, 15% of the Moon is Illuminated
Apr 6
Waning Crescent
Apr 10
New
Apr 18
First Quarter
Apr 25
Full
May 2
Last Quarter

Hourly Weather History & Observations

Time (CDT) Temp. Windchill Dew Point Humidity Pressure Visibility Wind Dir Wind Speed Gust Speed Precip Events Conditions
12:53 AM 42.1 °F 36.1 °F 28.0 °F 58% 30.05 in 10.0 mi East 10.4 mph 17.3 mph N/A   Partly Cloudy
1:53 AM 39.9 °F 35.8 °F 26.1 °F 58% 30.04 in 10.0 mi Variable 5.8 mph - N/A   Mostly Cloudy
2:53 AM 39.0 °F 34.8 °F 23.0 °F 53% 30.02 in 10.0 mi East 5.8 mph - N/A   Overcast
3:53 AM 39.0 °F 34.0 °F 19.0 °F 45% 29.98 in 10.0 mi East 6.9 mph - N/A   Mostly Cloudy
4:53 AM 39.0 °F 34.0 °F 16.0 °F 39% 29.96 in 10.0 mi ESE 6.9 mph - N/A   Scattered Clouds
5:53 AM 39.9 °F 35.8 °F 17.1 °F 40% 29.93 in 10.0 mi Variable 5.8 mph 18.4 mph N/A   Scattered Clouds
6:53 AM 39.9 °F 36.7 °F 19.0 °F 43% 29.92 in 10.0 mi Variable 4.6 mph - N/A   Overcast
7:53 AM 39.0 °F 34.8 °F 23.0 °F 53% 29.85 in 10.0 mi Variable 5.8 mph 23.0 mph 0.00 in Rain Light Rain
8:53 AM 42.1 °F 37.7 °F 26.1 °F 53% 29.81 in 10.0 mi Variable 6.9 mph 16.1 mph N/A   Partly Cloudy
9:53 AM 44.1 °F 40.1 °F 28.0 °F 53% 29.78 in 10.0 mi South 6.9 mph - N/A   Scattered Clouds
10:53 AM 50.0 °F - 30.0 °F 46% 29.74 in 10.0 mi South 8.1 mph - N/A   Clear
11:53 AM 57.9 °F - 33.1 °F 39% 29.70 in 10.0 mi SSW 10.4 mph 18.4 mph N/A   Clear
12:53 PM 60.1 °F - 36.0 °F 41% 29.66 in 10.0 mi South 8.1 mph 19.6 mph N/A   Clear
1:53 PM 61.0 °F - 37.0 °F 41% 29.62 in 10.0 mi South 13.8 mph 18.4 mph N/A   Mostly Cloudy
2:53 PM 61.0 °F - 41.0 °F 48% 29.60 in 10.0 mi South 9.2 mph 21.9 mph 0.00 in   Overcast
3:53 PM 62.1 °F - 41.0 °F 46% 29.57 in 10.0 mi SSW 9.2 mph 19.6 mph N/A   Overcast
4:53 PM 61.0 °F - 41.0 °F 48% 29.55 in 10.0 mi South 9.2 mph - 0.00 in   Overcast
5:53 PM 55.9 °F - 46.9 °F 72% 29.58 in 9.0 mi SW 10.4 mph 18.4 mph 0.01 in Rain Light Rain
6:53 PM 55.9 °F - 48.0 °F 75% 29.57 in 10.0 mi SSW 9.2 mph - 0.00 in   Overcast
7:53 PM 53.1 °F - 48.9 °F 86% 29.57 in 10.0 mi WSW 5.8 mph - 0.01 in   Overcast
8:20 PM 53.6 °F - 48.2 °F 82% 29.57 in 10.0 mi WSW 6.9 mph - 0.00 in Rain Light Rain
8:42 PM 53.6 °F - 50.0 °F 88% 29.58 in 6.0 mi West 5.8 mph - 0.03 in Rain Light Rain
8:53 PM 52.0 °F - 48.0 °F 86% 29.60 in 7.0 mi West 8.1 mph 19.6 mph 0.04 in Rain Light Rain
9:28 PM 50.0 °F - 46.4 °F 87% 29.60 in 8.0 mi SW 6.9 mph - 0.01 in   Overcast
9:42 PM 50.0 °F - 46.4 °F 87% 29.60 in 8.0 mi West 5.8 mph - 0.01 in   Overcast
9:53 PM 50.0 °F - 46.0 °F 86% 29.63 in 8.0 mi West 12.7 mph 19.6 mph 0.01 in   Overcast
10:53 PM 48.9 °F - 44.1 °F 83% 29.65 in 5.0 mi West 11.5 mph 18.4 mph N/A   Haze
11:19 PM 48.2 °F - 42.8 °F 82% 29.64 in 7.0 mi WNW 17.3 mph 24.2 mph N/A   Mostly Cloudy
11:26 PM 46.4 °F 39.8 °F 39.2 °F 76% 29.65 in 8.0 mi WNW 16.1 mph 27.6 mph N/A   Scattered Clouds
11:53 PM 46.0 °F 41.0 °F 39.0 °F 76% 29.68 in 8.0 mi WNW 10.4 mph 18.4 mph N/A   Scattered Clouds